STARLINK-1007

Last updated on Thu Dec 12 2019 00:02:03 GMT+0000 (Coordinated Universal Time)

1 44713U 19074A 19345.25001157 .00002784 00000-0 24228-4 0 9996 2 44713 53.0092 23.1724 0001911 359.3078 322.4732 15.73226279 4681

Satellite not in orbit

STARLINK-1007